Theta_e
309 299 295 295 298 301 303 303 303 303 303 303 302 300 299 299 300 303 304 310 308 304 302 302 303 303 305 306 307 308 308 308 309 309 309 309 310 310 310 311 311 310 310 313 315 320 322 322 325 326 326 327 327 327 328 328 329 330 329 328 327 328 329 328 328 327 326 325 324 325 325 324 324 323 323 323 323 324 324 324 325 324 325 325 324 324
307 297 297 300 302 303 303 304 304 303 304 301 300 299 298 299 297 302 302 307 310 302 300 303 302 303 305 307 308 310 309 308 308 309 310 309 310 311 311 311 312 312 316 317 315 317 320 322 325 326 326 325 325 326 327 327 328 329 329 329 328 328 329 328 328 328 327 326 326 325 325 325 325 323 321 322 323 323 324 324 324 324 325 325 324 323
297 295 300 303 305 305 305 304 304 303 301 301 299 298 297 298 300 302 303 305 306 303 299 302 301 302 304 306 308 308 309 310 311 310 310 310 310 311 311 311 312 312 312 312 313 314 314 321 324 326 326 326 327 326 326 327 327 328 329 329 329 328 328 328 328 328 327 327 327 326 326 326 325 325 324 323 323 323 323 324 324 324 325 326 325 324
293 297 301 305 305 303 303 304 303 302 302 299 299 296 295 299 296 292 301 304 305 304 300 301 300 302 305 306 307 309 309 310 311 312 312 312 310 310 311 312 312 312 312 312 312 313 314 315 324 324 325 326 326 326 326 327 326 328 328 328 329 328 328 328 328 326 328 328 328 328 327 327 326 324 323 323 323 323 323 323 324 325 325 326 325 325
296 301 305 305 304 302 300 301 301 299 297 300 299 298 297 297 298 297 298 302 304 305 305 302 299 299 302 301 303 307 309 309 310 311 312 312 313 312 312 312 313 313 313 313 314 314 314 314 317 323 324 325 325 325 326 326 327 328 328 329 329 329 328 328 328 327 328 327 326 327 325 325 325 322 323 322 322 323 322 323 323 324 325 326 326 326
299 305 307 303 302 302 300 298 299 299 296 298 301 300 299 299 298 298 300 298 296 295 301 300 291 292 299 300 301 305 306 306 309 309 310 310 311 312 312 311 312 314 314 314 315 315 315 315 314 317 321 322 323 324 325 326 327 327 327 328 329 329 329 328 328 328 328 326 326 325 324 322 322 322 321 321 321 322 322 322 324 324 325 325 325 326
300 305 305 301 301 300 300 298 300 301 296 295 296 302 301 300 299 298 297 297 290 288 297 303 291 287 297 298 301 303 304 305 307 307 309 310 311 312 312 313 313 313 314 314 315 315 315 315 314 314 317 320 321 323 325 326 326 327 327 328 328 328 328 328 328 328 327 327 326 325 324 324 323 322 323 324 324 324 324 324 323 324 325 325 325 325
301 301 302 302 301 298 297 296 300 301 296 293 301 301 301 299 297 297 297 296 293 298 299 301 298 290 290 296 302 303 302 303 305 307 308 309 310 311 312 313 313 313 314 314 315 315 316 316 316 314 315 318 320 322 323 324 326 326 326 327 327 328 327 328 328 328 327 326 326 325 325 324 323 323 323 324 324 325 324 324 324 324 324 325 325 325
301 298 299 298 299 297 296 298 301 302 297 297 302 303 300 299 298 299 297 295 295 293 289 294 298 290 289 296 302 303 300 301 302 304 306 309 310 311 312 313 312 313 314 314 314 315 315 316 316 317 316 316 318 320 322 323 324 326 327 326 327 328 327 328 328 327 327 326 326 326 325 324 323 324 323 323 323 323 323 323 324 324 324 324 325 325
302 301 301 300 298 295 299 301 302 302 297 301 302 303 302 302 301 300 295 294 293 291 286 291 296 288 289 294 296 300 299 299 301 304 306 308 309 310 311 312 313 313 313 314 315 315 315 316 317 318 319 318 318 319 321 323 324 325 326 325 326 327 328 328 328 327 327 326 325 325 325 324 323 322 322 322 322 322 323 323 323 324 324 324 324 324
303 306 307 302 299 301 301 302 303 302 302 305 301 299 298 297 296 297 294 292 288 284 287 293 295 293 286 292 294 295 297 300 302 304 306 307 309 310 311 312 313 313 313 313 314 314 315 316 317 317 317 317 318 318 319 320 322 324 324 325 325 326 328 327 328 327 326 326 325 325 325 325 324 323 322 321 321 322 322 322 323 323 323 324 324 324
299 301 300 302 305 303 304 300 303 303 302 301 296 294 293 290 292 289 287 289 283 283 290 294 294 295 285 289 296 300 303 303 303 303 305 306 308 309 310 312 312 313 313 313 313 313 314 314 314 315 315 316 317 317 317 318 320 322 323 324 324 325 326 327 327 327 327 326 325 325 325 325 325 324 323 321 321 322 322 322 322 323 323 323 323 323
293 295 300 301 304 302 299 297 297 300 300 297 296 294 286 281 283 281 286 282 283 283 289 294 295 291 290 294 297 300 302 304 304 305 306 307 308 309 310 311 312 312 312 313 313 313 313 314 314 314 315 315 315 315 315 317 319 321 322 323 323 323 326 327 327 326 326 326 325 325 325 325 325 324 323 322 322 322 322 322 322 323 322 322 322 322
289 296 297 298 300 303 301 293 292 292 296 295 292 290 285 281 280 278 281 283 284 288 292 292 295 289 294 297 301 301 303 305 305 306 307 307 308 309 309 309 310 311 312 312 313 313 314 314 315 315 315 315 315 315 316 316 318 320 322 322 323 323 325 326 326 326 326 326 326 325 325 325 324 324 324 323 322 322 323 324 323 323 323 322 322 322
281 283 290 295 291 302 299 298 297 295 295 294 297 293 288 286 282 278 280 278 279 283 287 292 287 284 288 292 302 303 305 305 306 307 307 306 307 307 308 308 309 309 310 312 313 313 314 314 314 315 315 314 314 315 316 316 317 319 319 321 321 322 323 324 325 326 326 326 326 326 325 324 324 324 324 324 324 323 323 324 324 324 324 323 323 323
284 285 294 299 299 301 297 300 301 298 295 297 297 296 290 287 290 284 285 283 282 282 283 286 285 290 294 301 303 304 303 304 305 306 306 306 307 307 307 307 307 308 309 310 310 312 312 314 314 315 315 315 315 315 315 315 316 316 317 318 320 321 321 323 324 325 326 326 326 325 325 324 324 322 324 323 323 324 324 324 324 324 325 325 324 324
286 283 296 297 300 299 299 301 300 301 285 293 294 288 291 298 293 285 286 285 285 285 282 289 289 294 300 301 302 303 303 303 304 305 305 305 306 306 307 308 307 309 309 310 311 313 313 312 313 314 314 315 315 315 315 315 316 315 315 315 316 318 319 321 322 324 325 326 325 325 325 325 324 323 323 323 324 324 325 324 325 325 325 325 324 324
284 284 294 295 293 299 302 301 301 300 299 294 288 292 297 299 294 287 281 282 282 279 281 287 285 288 288 286 300 300 300 301 303 304 305 306 306 306 307 308 309 309 311 312 312 312 313 313 313 313 314 314 315 315 315 315 315 315 315 315 314 315 315 318 320 322 324 324 325 325 325 325 325 324 324 324 324 324 324 324 324 324 324 324 324 324
293 282 289 296 296 298 301 300 297 300 301 295 292 300 291 283 285 288 285 279 278 278 280 284 286 286 291 291 296 295 298 300 302 304 304 305 305 306 307 308 309 310 311 311 310 310 311 312 313 313 313 313 313 313 314 314 314 314 313 313 314 314 314 316 318 320 322 324 325 325 325 325 325 325 325 324 324 324 324 324 324 324 325 324 324 323
293 283 285 296 295 297 298 296 286 292 298 299 299 295 296 293 288 286 286 286 285 279 281 281 285 283 292 293 297 298 300 301 302 302 303 305 306 307 307 308 309 309 310 310 310 310 312 312 312 312 312 312 311 311 311 311 312 312 313 313 312 313 312 313 315 317 319 322 323 324 324 324 325 325 325 324 323 323 324 324 324 324 324 324 323 323
288 290 281 289 297 297 288 293 289 292 290 292 293 290 291 290 293 291 289 286 283 281 281 280 280 285 294 299 299 299 302 303 303 303 304 305 306 307 308 309 309 309 309 310 310 311 311 311 310 309 309 309 308 307 307 308 310 310 311 311 312 312 311 312 313 315 317 319 322 322 323 324 324 324 324 324 324 323 323 324 323 324 324 323 323 323
287 286 283 286 286 288 291 297 296 295 295 293 292 290 292 289 285 283 280 289 287 284 280 281 279 287 295 302 301 302 303 304 305 304 305 305 306 307 308 308 308 309 309 310 309 309 309 307 307 307 306 304 305 305 306 308 308 307 308 309 308 308 309 310 311 313 315 317 319 320 321 322 323 324 324 323 323 322 323 323 323 323 322 323 323 323
292 290 286 284 286 290 294 298 299 299 298 297 295 292 294 292 290 285 281 284 286 287 287 286 283 285 297 301 301 301 302 303 305 304 305 305 306 307 308 308 308 309 310 310 310 310 308 307 305 304 303 303 303 304 304 303 305 306 306 306 307 308 309 310 311 311 312 314 316 318 320 321 321 322 322 322 322 321 321 321 321 321 322 322 322 322
295 285 283 285 288 290 293 295 296 297 296 293 295 296 294 290 291 289 287 288 285 286 285 285 283 286 297 298 301 303 302 303 304 304 305 306 307 307 307 307 307 308 309 309 306 305 304 303 301 300 299 300 299 299 301 302 302 303 304 305 305 306 307 308 309 310 312 313 314 315 317 319 320 319 320 319 320 319 320 320 320 320 321 322 321 321
286 286 285 281 281 283 286 289 289 290 293 289 290 294 295 294 294 293 291 289 285 285 286 285 280 286 296 301 302 302 301 300 302 303 305 304 305 306 307 308 308 308 307 305 303 302 301 300 299 300 300 300 300 300 300 300 301 301 301 301 303 304 304 305 306 308 310 311 313 313 315 315 316 317 316 318 318 317 318 318 318 317 319 319 319 320
289 287 284 278 275 274 274 276 279 283 286 289 292 293 295 293 292 291 286 287 283 287 288 286 285 292 297 298 300 301 301 300 300 299 302 302 303 306 306 306 306 305 304 303 302 301 301 300 300 300 300 301 301 301 300 300 300 300 300 301 301 301 301 303 304 305 306 308 310 311 311 313 313 315 316 317 317 316 316 316 315 316 316 317 319 317
285 289 287 284 281 279 282 285 291 292 289 285 288 290 292 295 295 293 291 287 284 288 287 289 290 292 294 297 298 299 300 301 300 300 302 302 301 303 306 304 303 303 302 302 303 302 301 301 301 300 300 301 300 298 300 299 300 298 299 299 299 300 301 302 303 304 306 307 308 309 310 312 313 315 315 314 314 314 313 314 312 313 314 312 314 314
284 285 287 287 286 286 287 287 292 294 289 289 289 289 292 292 294 292 288 285 292 288 284 291 293 291 293 296 298 299 299 298 299 299 300 300 301 301 301 303 302 301 301 301 302 302 300 299 299 299 300 300 300 298 298 297 299 300 299 299 298 299 300 304 303 304 305 306 307 309 311 312 311 309 311 310 309 311 310 311 311 312 311 310 313 313
284 283 288 288 287 288 288 288 289 290 289 290 291 291 291 293 291 289 290 293 293 287 285 292 294 292 294 296 298 300 301 301 299 300 300 301 301 302 302 301 300 299 300 300 300 300 300 300 301 301 300 300 297 297 296 296 297 297 296 297 297 298 300 301 302 303 304 304 306 308 306 304 305 307 310 307 309 310 311 311 311 311 311 311 311 312
288 285 288 289 287 288 288 288 289 287 288 289 289 289 290 290 290 292 292 294 294 292 293 293 294 294 297 298 299 301 303 301 300 300 300 299 301 302 301 299 299 299 300 302 304 304 303 303 303 303 302 301 300 298 296 296 296 297 298 298 297 298 298 299 300 301 302 304 304 302 303 302 304 307 305 308 309 310 309 309 309 309 309 310 309 309
288 284 290 286 284 284 288 289 289 288 287 285 287 289 290 290 289 289 287 288 288 289 291 293 292 292 299 302 302 303 304 304 301 300 300 300 300 300 299 299 299 302 302 304 305 305 304 304 304 302 301 300 299 299 300 298 298 298 298 297 297 297 295 296 297 296 298 300 299 300 300 303 305 304 306 307 305 304 305 307 305 305 306 305 306 309
289 285 287 284 282 282 286 287 288 289 288 287 286 286 287 288 286 288 287 289 287 286 288 288 288 290 298 301 302 302 303 303 303 301 298 299 299 299 298 299 299 300 301 302 302 301 301 302 302 302 301 299 298 297 297 297 297 296 297 296 296 295 295 295 294 295 295 295 296 299 302 303 303 304 304 303 305 304 303 301 302 304 304 303 302 306
287 285 283 284 280 281 286 287 286 286 285 282 284 287 288 289 290 291 291 292 290 291 287 285 288 295 298 301 300 300 301 302 303 303 301 300 299 299 299 300 301 301 301 301 301 300 301 302 301 302 301 299 300 299 297 297 297 296 295 296 295 295 294 294 293 293 294 295 297 298 300 299 301 301 301 301 300 300 300 301 304 305 306 308 307 301
287 286 285 286 279 281 284 284 285 282 274 277 291 294 292 289 289 288 288 290 292 294 291 294 295 298 299 299 299 300 301 302 303 305 306 306 304 300 300 301 303 303 301 300 301 301 301 301 300 301 301 301 301 301 299 297 296 296 296 295 294 293 292 294 293 294 295 295 297 297 297 297 298 298 297 297 297 298 297 299 303 302 303 303 301 303
281 284 284 286 282 280 283 281 279 273 277 289 293 295 295 293 292 290 291 292 293 295 295 295 296 297 298 299 299 301 303 306 307 306 307 307 304 302 302 303 303 302 301 300 300 300 300 300 298 298 298 300 299 297 295 295 294 293 294 293 294 293 293 293 293 293 293 294 294 294 294 295 295 295 295 294 294 296 296 297 294 294 296 298 298 301
283 282 282 283 284 284 281 279 272 276 287 291 292 293 295 294 293 291 289 292 293 293 294 292 293 295 296 298 300 302 304 306 304 304 306 308 305 303 301 303 302 300 300 301 301 300 299 298 298 298 299 299 295 296 295 295 294 294 294 292 294 293 293 294 294 293 293 294 293 294 295 295 294 293 293 292 292 293 293 292 293 294 291 293 294 295
287 285 282 281 285 277 279 279 279 286 285 287 287 288 290 287 288 288 283 287 292 294 293 293 294 295 296 297 299 302 303 303 301 304 307 299 299 298 301 303 303 301 300 297 297 297 297 296 296 297 297 295 295 295 295 294 294 293 292 292 293 291 293 293 293 292 292 293 294 294 295 294 294 293 293 292 293 293 293 292 292 290 289 292 292 293
290 284 285 281 280 283 278 276 277 277 275 282 289 292 295 294 294 293 289 286 293 294 296 294 293 294 296 297 299 301 302 299 296 299 305 297 296 296 297 298 297 296 294 294 295 295 295 295 294 294 294 292 292 292 293 292 292 293 293 294 292 291 292 292 291 291 292 293 294 295 294 294 294 293 292 291 292 293 292 290 290 291 290 291 291 292
288 289 287 283 282 282 280 276 276 275 278 286 287 292 294 295 294 292 286 283 290 294 296 295 294 295 296 297 298 300 297 292 294 299 298 294 294 294 294 294 293 291 291 291 292 294 293 293 292 290 290 290 290 290 290 290 290 292 292 291 291 292 292 292 291 291 292 293 293 294 295 293 292 292 291 290 290 290 290 290 291 289 288 289 290 291
285 286 286 282 281 281 280 277 276 280 280 286 290 292 295 295 294 289 278 280 291 294 296 296 295 296 297 298 299 299 297 292 295 298 292 292 293 293 292 290 289 289 288 289 290 292 291 290 289 289 289 289 289 288 288 288 291 290 291 291 290 291 291 291 292 292 291 291 291 291 290 293 293 291 291 289 289 289 290 289 289 289 288 288 289 289
282 283 284 280 282 282 281 279 281 282 288 292 292 293 292 294 291 282 277 286 290 294 293 294 293 293 296 296 298 296 296 297 293 291 291 292 291 291 290 290 289 288 288 288 288 289 290 290 289 288 287 287 287 287 287 288 289 289 289 288 288 288 289 289 289 289 288 288 288 288 288 288 289 290 290 289 289 288 288 288 288 287 287 288 288 287
282 284 284 284 281 280 281 279 279 283 288 292 292 296 294 289 281 280 291 287 289 287 288 291 290 290 290 289 289 291 289 291 290 289 289 289 289 289 288 289 288 288 287 286 287 287 288 287 287 286 286 286 286 286 286 287 288 287 287 286 286 286 287 287 286 286 285 286 286 286 286 286 286 285 288 288 288 288 287 286 287 287 287 287 288 288
282 280 280 281 283 283 282 278 278 275 286 295 293 290 292 287 288 293 287 285 287 287 287 287 289 288 289 287 288 288 288 288 288 288 288 288 288 288 288 288 287 287 286 286 286 286 286 286 286 286 285 285 285 285 285 286 286 285 285 286 285 285 285 284 284 284 284 284 284 284 284 285 285 286 286 286 286 287 286 285 286 286 287 287 286 287
287 280 281 283 286 279 279 277 278 285 289 293 295 288 291 294 291 289 290 286 287 287 287 286 286 287 288 288 287 287 287 287 287 287 287 287 287 286 286 286 285 286 286 285 285 285 285 286 285 286 285 285 285 285 285 286 286 285 286 285 286 285 285 284 284 284 284 284 283 284 283 283 284 284 284 285 285 286 285 285 284 285 286 287 287 287
287 284 286 282 285 283 281 284 287 283 286 288 288 285 287 288 289 289 289 289 287 287 287 287 287 287 288 288 287 287 286 287 287 287 287 286 286 286 286 286 286 285 285 285 286 286 285 285 285 285 284 285 285 285 285 285 285 285 285 285 285 285 285 284 284 283 283 283 284 284 284 284 284 284 283 283 285 285 284 283 283 285 284 284 285 286
284 287 285 285 284 287 287 287 286 284 284 286 288 289 289 288 287 287 288 288 287 286 287 287 288 288 287 288 287 285 286 286 286 286 286 286 286 286 286 286 286 286 286 286 286 286 286 285 285 284 284 285 284 285 285 285 285 285 284 285 284 283 283 284 284 284 284 284 284 284 284 284 285 285 285 285 283 283 284 284 284 284 285 284 285 286
285 284 286 285 285 284 282 285 284 285 286 286 288 288 287 287 287 287 287 287 288 287 287 286 287 287 287 286 287 286 286 286 286 286 286 286 286 286 285 285 285 285 285 285 285 285 286 285 285 285 285 285 285 285 284 284 285 285 285 285 285 283 283 282 283 284 284 284 285 285 284 285 285 285 285 285 284 284 285 284 284 284 284 285 285 285
282 288 285 285 284 284 285 285 286 286 287 288 287 286 286 287 287 287 287 287 287 286 286 285 285 286 286 285 285 285 285 284 285 286 286 286 286 286 285 285 285 285 285 285 285 285 285 285 285 285 284 284 284 284 284 284 284 284 284 284 283 283 284 284 283 283 283 284 284 284 285 285 288 286 285 286 285 286 286 285 285 284 285 285 285 284
285 288 283 286 285 285 285 285 285 284 285 286 287 287 288 288 287 287 286 286 286 286 286 285 284 284 285 284 284 284 283 283 284 284 284 285 285 285 285 285 285 284 285 285 285 285 285 285 285 284 285 285 285 284 284 284 285 284 284 283 283 282 282 284 284 284 284 283 283 284 283 283 283 284 284 285 284 284 285 285 285 286 286 285 286 286
285 283 285 285 283 283 285 286 286 283 282 285 287 288 288 288 287 287 286 286 286 285 285 285 284 284 284 283 283 283 283 283 283 283 283 284 284 284 284 284 284 284 284 284 285 285 285 285 285 285 285 285 285 285 285 285 285 286 284 284 283 282 283 283 284 284 285 285 285 285 284 284 283 283 283 284 284 284 284 285 286 287 287 286 285 287
287 287 287 285 284 284 289 289 289 290 288 288 289 289 288 288 287 287 286 286 286 285 284 284 284 283 283 284 283 283 282 283 283 283 283 283 283 284 284 284 284 284 285 285 285 285 285 285 285 285 285 285 285 285 285 285 285 285 286 285 284 284 283 283 283 283 283 284 285 285 285 284 284 285 285 285 284 282 283 283 285 286 287 287 286 287
Wind_Speed
8 10 11 13 13 16 17 18 15 14 9 8 10 9 9 9 9 5 9 4 3 3 12 9 10 10 11 9 10 10 10 12 14 11 10 9 7 6 6 6 6 7 7 6 9 11 11 10 10 10 9 9 10 10 12 12 12 13 13 12 13 12 12 12 11 11 11 11 10 8 10 10 9 10 9 8 8 8 8 8 9 9 8 8 10 11
12 13 13 13 16 14 16 15 15 13 13 14 10 10 11 11 10 7 5 6 2 5 4 6 10 11 10 10 11 11 11 13 12 13 14 11 10 10 10 11 9 7 3 4 6 7 8 9 10 9 8 8 11 11 12 14 15 14 15 15 14 11 11 12 13 13 13 12 13 13 13 11 10 10 11 10 10 10 8 8 9 9 9 9 10 11
13 15 14 18 16 13 12 15 14 15 14 14 11 8 10 11 6 6 6 3 3 2 6 5 11 13 12 13 12 11 13 12 11 10 10 11 13 11 11 11 11 9 6 5 6 6 7 8 10 10 10 11 14 14 14 15 14 14 14 14 13 13 14 13 13 11 13 13 12 12 11 12 9 8 9 9 9 9 9 9 9 9 9 10 9 10
14 14 19 17 16 16 14 15 14 14 13 10 10 11 12 6 7 5 7 3 4 5 3 3 10 12 11 12 16 17 18 12 10 12 15 12 10 13 13 11 10 10 9 8 8 9 9 8 10 10 11 12 10 10 11 12 14 13 13 13 14 14 14 13 14 14 13 12 12 11 9 10 9 7 6 8 8 9 10 11 11 11 10 10 10 11
16 9 18 15 15 17 17 15 15 13 12 12 14 12 11 12 10 8 2 5 3 5 6 7 12 13 11 12 10 10 13 15 15 14 13 12 11 7 8 10 11 12 11 11 10 10 10 11 12 13 14 12 12 13 13 14 14 11 16 16 16 15 15 14 15 16 12 9 8 8 4 5 6 3 6 7 8 10 10 10 11 13 12 12 12 12
15 4 6 13 15 16 15 16 16 12 12 12 14 15 12 10 11 9 6 6 4 7 8 4 7 15 9 13 14 11 11 17 15 16 17 13 11 12 11 10 10 10 9 11 12 13 13 13 12 13 13 12 12 14 14 15 16 14 14 16 15 13 13 14 15 15 12 11 12 11 11 10 11 11 11 13 15 13 13 15 12 10 13 13 12 12
10 8 13 17 14 14 17 16 15 15 12 12 12 12 15 14 9 6 5 3 7 10 2 10 11 16 6 9 11 11 14 18 14 16 17 14 15 15 14 13 12 12 11 11 11 10 11 12 12 14 15 15 16 16 15 14 15 16 16 16 17 15 14 14 14 16 13 12 12 16 16 14 15 16 13 13 12 12 12 9 10 12 11 13 13 12
5 10 5 11 15 14 13 15 13 16 11 13 6 11 13 14 14 11 9 8 6 3 4 2 4 11 13 11 8 6 9 11 15 16 14 13 14 15 15 15 14 14 14 14 16 17 16 14 13 14 17 16 17 17 15 14 14 17 17 16 16 14 14 13 13 15 16 15 14 15 15 14 14 14 15 15 13 11 9 11 12 10 11 12 13 13
16 14 14 11 12 14 16 14 14 16 13 4 2 4 9 10 9 7 8 7 6 5 12 10 8 10 15 13 7 9 13 14 14 10 10 14 15 14 15 15 14 14 15 16 15 16 16 17 16 14 14 16 17 16 14 15 16 16 16 15 15 15 14 13 16 16 17 16 16 15 14 14 13 13 11 8 9 10 11 12 11 11 12 12 13 13
2 11 15 15 11 11 11 14 10 10 10 4 7 4 1 2 2 1 3 5 5 6 14 13 8 10 19 17 7 9 16 18 15 14 16 14 9 11 14 14 14 14 14 14 16 14 13 14 15 16 17 15 16 16 15 16 14 13 13 14 15 16 14 14 16 17 18 19 15 15 15 17 15 12 10 8 10 11 10 12 12 12 11 11 12 13
2 5 1 7 13 11 9 11 10 12 10 6 4 4 3 4 2 3 1 0 2 11 15 15 12 13 18 19 10 11 14 13 12 12 11 9 12 11 9 12 14 14 14 12 11 12 13 13 15 15 16 17 14 12 14 15 15 14 14 15 17 18 15 15 17 18 19 18 17 16 17 19 18 15 13 11 11 11 11 12 12 12 12 11 12 12
10 4 2 3 3 3 5 7 10 8 6 10 4 5 4 1 3 2 1 1 8 12 12 16 15 17 18 22 10 13 12 13 15 14 10 12 13 13 10 10 10 11 11 11 10 10 12 12 12 12 14 15 15 13 11 12 13 14 15 15 17 17 17 15 16 17 17 16 18 18 18 18 18 15 13 15 15 14 15 14 13 11 10 11 11 11
12 13 5 5 4 12 8 5 4 5 5 7 7 6 8 2 3 6 4 10 13 13 8 10 15 13 23 25 7 6 11 15 17 13 13 11 12 13 12 13 12 10 9 10 11 11 10 11 13 13 14 13 11 11 10 10 10 11 12 14 16 17 17 16 16 17 18 17 17 18 18 17 15 14 15 15 14 13 13 12 12 11 12 11 11 12
8 8 11 7 3 8 8 11 8 6 10 9 10 10 9 9 8 11 10 5 8 12 11 13 9 15 8 18 16 23 23 15 11 16 17 17 14 12 10 9 9 10 10 11 10 11 12 13 12 12 12 11 9 9 11 11 11 10 11 13 15 18 17 15 15 16 17 18 18 17 17 16 14 15 15 14 14 13 12 11 13 13 13 13 15 14
9 11 12 12 9 9 10 10 13 11 14 17 13 15 13 11 6 12 8 13 13 12 10 10 4 4 8 12 7 20 21 20 20 17 10 9 9 8 8 8 8 8 8 9 10 12 13 13 11 9 8 8 8 9 9 9 11 12 12 13 16 16 15 15 16 14 16 16 16 15 15 15 13 14 14 14 13 13 12 11 12 13 12 13 13 14
16 10 5 20 7 15 16 13 9 5 5 9 7 4 8 14 3 11 6 5 3 1 3 6 7 5 9 15 10 6 6 11 17 21 20 20 15 10 8 8 8 7 7 7 7 8 10 9 8 8 8 9 9 9 9 10 11 12 13 14 16 17 15 15 15 15 16 16 14 15 16 17 16 13 12 11 11 11 12 13 13 14 13 13 12 11
5 13 7 13 16 15 16 13 11 12 10 8 7 10 12 9 13 3 7 4 4 7 10 2 7 5 8 17 12 13 17 11 7 15 19 21 21 19 17 13 9 9 8 10 9 8 7 6 6 7 7 8 9 9 10 12 12 13 13 12 13 14 12 13 15 16 14 14 13 15 16 15 14 15 15 14 14 14 13 12 12 12 12 11 11 10
5 6 10 10 15 11 15 15 12 14 4 4 11 10 2 9 7 3 9 2 7 11 9 5 14 7 3 12 8 20 13 6 11 11 14 17 15 17 16 13 13 11 12 14 12 10 9 7 7 7 7 8 10 10 10 11 9 10 11 12 14 13 14 14 14 14 13 14 15 14 15 15 15 15 15 14 13 12 11 11 11 11 10 12 12 11
3 3 3 12 15 12 10 10 12 12 13 10 3 6 10 1 7 5 0 11 9 11 8 13 17 15 9 16 6 2 10 11 11 11 12 14 14 15 14 14 13 12 12 12 9 8 7 8 10 11 11 10 9 8 8 8 8 7 8 10 12 14 14 14 12 11 12 13 11 11 13 15 14 13 13 12 12 11 12 14 13 13 13 10 10 10
3 7 4 7 12 9 9 10 13 11 13 10 4 8 6 3 9 9 11 4 6 11 5 17 13 13 10 16 18 16 16 10 11 10 14 15 14 13 13 12 12 12 14 10 7 8 9 11 11 10 9 8 8 7 7 7 6 8 9 9 10 10 9 9 11 12 12 12 11 11 10 11 12 12 12 12 12 12 13 14 13 13 11 12 9 10
1 2 9 3 9 11 11 9 14 15 13 12 10 9 5 6 1 5 5 11 8 8 13 10 15 5 10 13 19 19 20 15 10 12 11 12 12 13 12 14 15 14 10 11 11 11 12 11 7 6 5 6 6 5 5 5 7 8 7 8 9 12 11 12 13 12 12 11 12 12 13 13 12 13 12 12 13 14 13 12 12 12 11 7 10 10
5 4 10 4 3 10 6 10 17 16 14 14 14 15 15 14 7 12 10 5 9 10 7 8 18 6 3 8 12 16 19 15 16 13 13 13 13 12 14 17 14 12 12 11 11 10 9 6 5 4 2 1 3 3 5 7 6 6 6 6 5 5 7 9 10 11 11 10 11 12 13 12 10 11 11 12 12 13 13 12 11 10 8 11 11 10
11 6 7 12 8 8 10 7 5 5 7 14 15 14 14 10 7 7 12 9 3 10 6 10 11 12 1 8 5 4 5 7 11 12 11 12 14 15 17 16 13 12 10 10 10 8 6 6 6 6 5 5 6 7 7 6 7 7 7 7 7 9 10 9 10 8 8 8 9 11 10 9 9 9 11 12 11 12 12 10 10 9 11 11 10 9
4 1 3 10 7 6 5 2 7 6 2 7 12 13 13 15 15 14 13 12 12 8 10 9 14 12 9 5 8 8 9 8 8 8 10 10 11 15 15 10 8 7 7 7 5 5 6 6 6 5 5 5 5 5 6 7 6 6 7 8 7 10 10 8 8 8 9 10 10 9 8 9 9 10 10 11 11 11 11 10 9 9 10 10 9 10
6 6 8 7 6 5 8 8 6 1 1 3 4 12 14 12 15 14 10 6 11 12 12 10 18 10 9 10 14 12 11 10 9 7 10 8 8 10 10 8 8 7 6 5 5 5 5 5 6 6 7 7 8 7 7 8 7 7 7 6 8 8 7 6 6 6 7 8 9 9 10 10 9 10 11 11 10 11 11 11 10 9 10 9 9 8
9 6 11 13 15 14 12 13 15 14 11 6 5 9 12 17 18 12 15 10 14 11 15 13 13 12 8 6 12 16 17 15 8 3 2 3 5 3 4 3 3 4 4 4 4 5 5 6 5 5 6 6 7 8 7 6 7 7 7 8 7 7 6 7 6 7 7 6 8 8 9 9 9 11 11 12 11 11 10 9 8 8 8 8 9 7
3 6 11 13 14 16 13 2 2 2 4 10 7 15 17 18 20 18 12 14 17 12 16 16 15 11 15 17 17 12 13 19 12 1 0 0 1 2 3 5 5 5 5 4 3 2 2 2 5 5 5 7 6 6 6 6 6 6 6 7 6 6 6 6 6 6 7 7 7 7 9 10 11 11 11 10 9 8 7 7 7 7 8 7 7 8
2 8 12 16 20 18 16 11 4 5 6 6 14 14 15 16 18 20 16 17 13 12 18 12 14 14 22 22 20 15 8 5 6 5 2 2 3 5 4 2 3 2 1 0 1 1 4 5 5 5 7 7 7 6 5 5 6 6 7 7 6 6 6 6 6 6 7 7 8 8 10 11 9 7 8 6 6 6 7 7 7 7 7 7 8 9
4 4 7 10 15 17 18 17 13 4 4 4 6 6 11 17 17 19 18 19 17 14 19 16 15 18 22 25 21 15 13 11 7 6 5 5 4 3 3 5 6 6 4 4 5 5 5 6 7 8 9 7 4 4 4 5 5 5 5 5 5 5 7 6 6 6 6 6 8 10 6 4 4 5 7 5 6 6 7 8 8 8 8 8 8 9
1 7 7 7 11 13 15 16 15 18 14 10 10 8 7 7 11 14 14 15 20 20 17 16 13 19 21 23 16 11 12 10 7 6 6 5 7 8 6 6 6 5 5 6 7 8 8 9 10 9 3 1 2 4 4 5 5 5 6 6 5 6 5 5 6 6 6 7 7 3 3 4 4 5 6 6 8 8 7 7 7 7 8 8 8 7
1 4 8 5 7 13 15 13 15 17 17 21 20 17 15 14 14 14 11 13 12 12 13 15 16 18 18 16 12 7 8 8 9 10 8 8 7 8 7 6 3 1 1 1 0 2 4 5 4 3 2 4 4 5 5 5 5 5 6 5 5 5 4 5 5 5 5 5 3 3 4 5 6 6 7 7 6 5 6 6 6 6 7 6 7 8
8 4 1 3 9 12 12 13 15 15 16 19 19 19 17 17 17 17 15 12 10 12 13 13 14 14 19 22 11 9 10 13 14 11 8 6 6 5 5 4 3 4 4 4 4 4 5 5 5 4 5 5 5 5 4 4 4 4 5 5 5 4 4 5 4 5 4 4 4 5 6 7 6 7 6 5 6 6 6 5 6 6 6 5 6 6
6 2 2 4 11 13 13 9 12 13 13 17 20 17 17 17 17 17 15 11 12 10 12 12 14 15 16 11 11 14 16 17 15 14 8 7 5 6 5 6 6 5 5 5 5 5 6 6 5 4 4 4 4 4 4 2 1 2 3 1 3 4 4 4 4 4 5 5 6 6 6 5 6 6 5 5 5 5 5 6 6 7 7 9 6 3
5 5 6 3 7 11 15 11 8 9 17 16 8 18 21 22 21 20 19 16 13 12 9 11 13 11 11 14 14 16 18 13 9 11 10 13 10 7 6 5 6 6 5 4 5 6 6 5 4 3 1 1 1 1 1 2 2 2 2 2 3 4 4 5 5 5 5 5 6 6 6 6 5 5 4 4 4 4 5 6 8 6 4 3 3 5
3 4 4 2 4 10 10 4 8 18 14 8 12 10 16 19 17 18 18 17 13 10 10 12 12 16 18 15 17 20 18 16 16 19 8 11 10 7 6 6 7 6 6 4 3 4 4 4 4 2 1 1 1 2 4 4 4 5 4 4 4 2 3 1 2 3 4 4 5 4 3 2 2 2 2 3 4 5 5 6 5 4 4 4 5 7
6 5 2 2 3 6 6 4 11 6 2 6 10 12 9 10 11 10 14 15 14 16 15 15 15 17 17 17 18 17 20 18 11 11 8 8 6 5 4 6 6 5 4 2 1 4 6 6 4 3 1 0 3 2 2 3 3 5 5 4 4 4 3 2 2 3 3 4 2 2 1 1 2 3 3 4 4 5 6 5 6 7 5 5 5 5
10 4 3 6 5 8 10 11 13 9 14 13 3 2 7 8 9 14 14 18 20 18 17 15 18 19 19 19 17 17 16 13 10 12 13 8 7 5 6 5 4 3 5 7 7 5 3 2 3 3 3 5 5 6 6 4 4 4 3 3 2 3 2 1 1 3 2 1 1 1 2 3 4 5 5 5 5 7 7 7 7 7 5 6 6 7
10 10 6 7 4 8 10 10 8 8 10 12 11 3 12 13 14 15 13 16 9 15 17 18 20 19 19 18 17 15 10 10 15 16 14 3 4 5 6 5 6 8 7 6 5 5 5 4 4 5 5 5 6 6 5 5 4 3 2 1 1 2 1 0 3 2 2 1 1 1 3 4 5 5 5 4 6 6 5 4 3 4 4 6 6 8
9 11 9 9 9 6 7 9 8 9 9 8 5 8 11 12 11 6 6 16 5 14 16 19 20 19 18 17 17 11 6 10 14 13 1 3 3 3 4 5 6 7 7 7 6 7 6 6 5 5 7 9 10 8 6 5 5 5 5 5 3 2 1 3 4 5 4 3 1 1 1 2 4 4 4 4 4 4 4 4 5 3 3 4 4 6
11 9 9 12 12 11 10 9 11 5 8 8 5 6 13 13 6 7 10 12 11 13 14 17 19 19 17 15 12 9 10 11 17 5 1 1 5 4 7 6 6 7 7 6 6 5 5 4 7 11 11 10 7 6 6 5 7 7 6 6 6 8 7 6 6 5 5 5 4 4 4 1 1 1 2 3 3 3 4 3 2 4 4 4 5 6
6 5 7 14 11 13 17 11 7 7 7 8 4 1 2 2 8 11 14 14 4 10 7 8 4 2 1 7 8 11 4 2 3 5 3 6 5 6 5 5 5 5 6 7 6 5 6 7 9 8 7 5 5 5 5 5 9 8 7 6 7 6 5 4 4 5 4 4 4 4 4 4 3 2 1 1 2 2 2 3 4 3 4 5 4 4
6 5 5 9 12 13 12 13 12 10 8 6 6 10 6 7 7 11 11 3 2 3 2 5 5 1 4 6 4 4 7 6 5 5 6 5 6 4 5 5 5 5 5 5 6 5 6 7 7 7 7 5 5 5 4 6 10 7 6 7 7 4 4 4 5 4 4 4 5 4 5 4 4 3 2 1 1 1 2 2 2 3 4 5 4 5
9 6 7 9 7 7 6 9 9 10 7 16 5 1 2 8 10 9 3 1 0 3 4 2 4 3 6 6 8 11 10 9 7 6 5 5 5 6 5 6 6 6 5 6 7 6 5 7 8 7 5 4 5 5 4 7 9 6 5 8 3 3 3 3 3 3 3 4 4 4 4 4 4 4 4 4 3 1 3 3 2 2 2 3 4 4
8 6 4 7 8 6 9 9 8 9 5 3 16 13 8 12 2 7 11 5 3 3 5 5 2 4 6 11 10 9 9 10 8 6 6 6 5 4 5 5 4 4 5 4 4 4 4 7 6 6 5 6 6 5 5 6 9 6 7 5 1 1 1 1 2 2 4 4 4 4 3 3 3 3 3 3 2 2 3 4 3 2 3 4 5 5
11 11 8 8 7 9 7 7 4 2 2 4 3 1 3 3 1 1 0 4 7 4 2 6 7 6 8 11 10 10 9 6 8 6 7 5 5 4 5 5 4 5 5 6 6 5 5 6 6 5 5 5 6 6 6 4 6 6 6 2 3 2 1 0 1 3 4 4 3 3 2 2 1 2 2 2 1 1 3 3 3 3 3 3 3 4
1 3 2 2 5 1 2 3 2 1 2 4 3 1 0 1 3 3 4 6 2 2 0 1 6 9 8 8 13 6 7 7 9 7 6 6 6 5 4 4 5 5 5 5 6 7 5 5 5 5 5 6 6 6 5 6 6 7 4 4 3 3 3 1 2 5 4 3 3 2 1 2 1 1 0 1 1 2 3 3 3 3 4 4 5 5
5 3 3 5 1 3 8 4 4 4 1 0 0 1 2 1 3 3 3 3 4 5 5 4 5 6 6 6 10 10 8 5 8 7 6 5 5 4 4 4 4 4 4 5 4 4 4 4 5 6 5 6 5 6 5 5 5 5 5 6 6 6 5 2 1 3 2 2 2 2 3 4 4 3 1 1 2 2 3 3 3 3 4 5 5 4
4 6 3 3 2 7 6 4 2 2 0 0 2 1 1 2 5 5 4 4 4 5 5 5 5 7 5 7 5 9 7 5 6 6 5 5 4 3 3 3 3 4 3 3 3 4 4 4 4 4 4 5 4 6 6 6 5 5 6 6 6 7 7 5 4 3 2 1 1 1 0 1 2 3 3 3 2 2 1 1 3 3 5 5 5 4
4 8 6 6 6 2 2 2 4 4 1 3 0 1 3 5 7 6 6 6 6 8 6 5 4 4 5 7 6 7 8 5 5 5 5 4 4 3 3 3 3 3 2 4 3 4 4 4 4 4 4 4 2 4 5 5 6 5 5 5 5 6 7 9 8 7 6 4 1 1 0 1 1 1 1 1 1 2 3 2 3 4 5 5 5 5
5 7 2 4 4 7 12 11 11 4 5 7 7 6 7 5 7 9 6 6 5 6 5 7 6 5 5 4 5 5 7 5 4 4 4 4 3 3 3 4 3 4 4 3 3 3 4 4 4 4 4 3 2 2 3 4 4 4 4 4 4 5 6 7 8 8 9 9 8 8 6 3 1 1 2 3 4 3 3 7 8 7 6 6 7 11
10 8 7 9 10 13 11 8 16 10 1 6 12 9 8 6 7 10 8 7 5 5 5 7 7 5 4 4 3 6 5 5 4 4 4 4 3 3 4 4 5 5 5 5 6 6 6 5 4 4 5 5 4 4 3 4 4 4 4 2 3 4 4 5 6 7 8 8 9 9 9 8 9 8 7 6 5 4 2 2 5 11 13 12 10 9
Wind_Direction
152 183 183 194 201 197 197 201 208 218 213 210 220 227 227 230 238 212 212 126 161 166 254 273 280 274 259 251 238 234 235 240 244 238 222 223 232 242 254 246 233 221 219 200 186 181 189 190 186 185 183 182 183 183 181 183 184 182 184 179 187 191 183 181 181 181 181 188 194 205 209 207 196 195 191 196 198 199 201 199 203 205 204 198 195 199
179 202 203 198 204 198 198 197 209 220 220 229 228 221 230 227 239 223 239 129 233 164 255 254 276 270 280 276 264 269 258 246 234 236 242 228 218 225 228 235 239 241 230 156 164 180 178 181 182 180 180 177 182 194 184 187 189 184 184 184 187 184 190 190 189 185 186 190 192 191 199 199 197 190 190 195 196 202 200 199 201 204 205 204 198 197
196 211 203 205 203 206 203 202 208 216 222 226 231 233 235 229 235 235 242 204 141 205 253 254 261 265 265 272 282 266 252 249 242 241 239 230 222 228 222 223 229 231 230 189 189 194 190 179 182 178 185 190 192 190 190 193 189 187 187 189 184 185 190 194 192 188 193 192 192 191 193 194 200 198 190 190 190 192 200 202 204 205 206 206 202 194
206 215 215 202 199 202 199 196 201 215 230 230 222 233 234 220 211 229 213 185 213 205 270 233 256 261 256 249 250 260 271 271 258 239 240 239 223 214 216 212 217 222 222 214 201 203 201 191 185 188 192 195 191 188 198 198 195 192 191 191 187 189 191 192 192 197 200 197 196 197 189 193 192 188 176 179 181 191 195 203 201 205 206 204 203 197
212 203 210 203 197 199 204 200 200 209 222 221 229 232 237 237 233 242 188 196 190 253 260 268 273 267 242 247 245 245 258 263 261 264 249 236 240 234 214 216 211 218 212 214 214 209 203 202 198 195 200 195 192 193 197 198 196 197 196 193 191 190 190 193 193 194 190 181 188 195 197 181 190 167 176 178 200 200 198 200 200 204 199 202 202 199
221 212 165 197 191 199 207 208 204 203 224 226 224 227 238 234 237 239 238 261 245 247 208 220 285 263 241 236 237 233 237 249 248 248 248 236 234 236 237 223 218 219 212 208 211 211 208 205 203 203 202 198 200 203 203 199 198 197 198 197 195 194 191 194 195 190 184 184 184 181 187 189 191 196 189 195 200 198 200 204 198 194 198 200 202 202
214 192 190 195 191 192 203 214 205 198 220 223 216 210 229 239 240 228 238 200 240 242 207 176 234 275 230 229 216 218 223 237 241 237 243 238 236 235 234 230 225 221 224 227 226 219 215 211 204 201 201 202 203 208 206 202 198 199 200 198 195 194 194 194 193 186 186 189 190 191 194 196 194 195 202 203 201 199 204 195 194 200 197 200 201 204
177 208 213 188 193 199 203 211 198 193 205 229 192 199 205 222 226 231 230 228 261 298 280 272 230 266 276 237 240 253 261 239 234 239 240 237 235 235 234 233 229 225 224 225 227 227 225 217 208 202 203 202 206 206 203 200 201 201 201 196 196 197 195 192 189 187 189 193 194 195 199 203 208 207 204 196 198 197 190 195 199 195 201 200 202 203
188 199 200 203 193 198 206 205 200 196 204 225 244 185 209 207 217 222 226 244 245 264 260 240 233 273 265 255 216 229 249 253 259 254 236 231 231 229 229 232 232 231 231 230 231 229 226 225 223 219 207 208 208 205 200 200 202 202 201 196 194 195 194 193 189 189 193 196 196 197 200 207 213 212 213 199 194 191 189 196 196 196 200 199 202 204
241 204 206 211 212 207 205 210 206 195 209 182 82 97 54 56 41 215 224 235 250 231 247 241 208 253 269 261 220 206 234 242 241 241 251 258 244 227 225 224 227 231 233 231 232 230 228 226 226 225 226 214 206 205 202 203 201 201 197 197 193 196 196 194 191 191 195 197 197 199 203 209 211 208 206 191 197 198 189 198 196 197 197 198 198 203
258 273 28 205 203 205 206 202 193 200 206 96 131 145 113 69 95 49 60 43 327 241 239 244 219 225 268 259 224 216 229 236 240 242 241 235 247 248 226 220 223 227 229 228 228 228 228 225 223 223 226 228 219 206 203 202 198 196 196 196 196 198 197 196 195 193 197 196 197 203 204 208 211 205 201 199 202 198 194 199 198 196 199 195 199 197
255 275 221 182 171 229 229 216 191 200 200 127 199 171 117 257 34 8 358 146 239 249 234 233 225 214 243 265 221 234 239 233 235 240 225 224 229 238 241 236 228 224 226 230 228 229 231 234 231 226 228 228 225 216 206 204 200 197 197 196 199 201 199 198 198 196 199 197 199 204 205 208 212 204 201 205 206 198 199 198 198 195 193 200 197 195
232 226 185 275 190 188 200 181 290 185 134 170 147 137 154 212 107 239 159 231 221 237 219 212 212 226 229 252 247 250 222 223 230 238 232 218 219 225 232 234 233 226 224 223 227 230 233 230 230 226 228 225 225 222 215 207 202 202 200 197 199 205 202 200 198 198 199 198 202 203 205 210 209 206 207 210 212 205 202 199 197 189 198 194 194 199
236 213 204 205 135 208 201 187 161 198 174 176 186 170 172 206 212 238 222 235 255 240 231 233 189 234 251 269 237 246 244 242 235 230 233 239 237 225 218 225 224 224 223 225 224 227 229 229 228 225 224 222 223 215 208 202 193 194 199 200 202 209 203 201 198 200 200 201 204 203 205 207 204 208 210 211 211 209 206 198 200 199 199 197 200 198
218 218 214 178 218 160 213 212 188 185 176 198 193 190 198 194 188 213 211 219 222 240 231 219 207 225 156 240 162 228 238 229 230 235 230 218 214 207 212 219 222 221 225 223 228 232 233 233 225 219 217 220 220 214 205 197 194 190 197 200 205 211 207 200 201 199 201 205 206 204 206 207 205 208 209 212 210 208 206 203 202 205 203 203 205 203
224 254 152 191 184 173 197 203 202 155 181 203 199 174 208 218 188 241 206 223 237 322 279 179 204 188 209 268 256 306 261 231 222 228 232 239 239 239 240 224 221 222 224 228 238 245 243 230 214 208 211 215 215 212 203 196 195 197 201 203 206 210 206 201 201 202 203 205 204 205 205 208 207 207 209 213 212 211 209 209 206 207 205 207 205 204
181 231 162 192 190 189 192 189 197 157 194 188 190 208 211 211 217 275 309 248 309 278 249 320 293 314 336 278 260 251 253 248 217 213 221 229 232 235 242 234 224 227 233 242 238 230 227 229 225 214 213 216 216 213 207 204 198 198 202 204 209 214 209 205 205 205 204 204 203 208 209 208 208 207 207 209 208 208 208 210 213 211 209 206 204 202
214 241 193 171 204 203 190 196 197 204 206 123 209 208 142 55 68 186 235 239 236 250 260 230 250 246 191 279 175 221 235 196 221 215 217 220 216 218 223 219 221 224 227 233 229 219 216 221 228 231 226 221 217 214 213 212 208 203 202 202 207 211 208 211 208 206 205 204 205 207 208 209 208 209 211 210 210 206 206 211 214 213 209 208 204 198
135 287 229 186 185 195 187 185 214 226 212 210 212 149 184 104 210 201 326 235 234 237 255 241 248 243 201 252 283 261 224 216 216 219 217 219 213 212 215 220 221 221 225 231 225 219 221 221 227 228 228 229 226 218 212 209 201 202 205 206 206 210 210 209 207 207 209 207 207 207 206 205 207 207 208 209 209 202 206 210 211 211 214 208 200 196
179 220 227 182 189 167 182 175 212 206 216 209 65 191 179 169 213 195 201 255 230 247 238 257 238 241 196 244 251 251 253 234 216 214 216 215 209 210 218 224 225 224 225 217 204 210 220 229 230 227 226 228 224 221 213 202 200 207 208 203 210 214 208 205 208 207 208 207 205 207 204 206 205 205 205 205 204 206 209 211 210 211 209 208 195 200
261 181 244 168 187 152 209 183 204 198 189 199 200 211 194 209 31 202 197 204 215 232 229 262 260 205 203 218 235 237 242 240 231 214 212 213 210 211 216 221 224 224 218 209 202 210 220 227 226 224 227 233 232 218 206 203 205 210 207 212 211 207 206 205 208 205 209 202 205 202 203 204 200 201 201 202 204 208 212 211 209 210 209 191 200 197
193 180 220 187 224 204 201 192 206 202 191 202 195 212 203 191 191 193 226 188 219 224 228 225 251 256 246 198 229 228 238 234 237 230 210 206 206 211 225 231 227 224 220 209 208 212 220 211 198 183 123 96 137 168 194 209 201 205 209 217 220 223 220 213 212 208 208 204 203 204 205 204 197 197 198 202 204 209 211 211 207 205 196 202 205 194
191 189 203 226 209 217 215 218 226 245 225 206 196 216 206 209 195 213 232 208 214 241 252 254 293 253 358 285 312 281 279 255 236 225 207 199 202 211 225 229 223 214 209 213 211 208 189 167 159 157 166 185 192 200 202 202 202 205 204 200 204 204 216 208 212 210 207 208 209 209 204 196 196 193 197 201 205 210 211 211 208 198 201 205 203 199
110 208 190 261 276 262 278 310 311 297 67 310 241 218 204 209 201 211 218 211 225 215 226 240 245 266 240 282 293 304 306 283 258 229 202 197 202 214 221 217 213 214 213 201 189 158 148 146 146 147 186 216 231 222 215 216 215 213 211 209 206 214 218 216 213 207 202 203 206 202 194 196 196 194 198 203 206 209 208 206 206 197 201 203 198 198
185 186 196 220 247 251 262 267 258 157 357 210 227 227 224 218 217 225 241 237 246 222 229 224 247 247 242 232 252 267 286 298 268 225 191 196 197 203 203 200 195 192 182 178 180 181 168 153 167 194 202 209 218 220 217 215 217 216 220 216 218 224 221 223 220 217 216 209 205 200 195 197 192 196 200 204 204 209 205 203 200 194 200 198 200 200
202 157 184 207 214 220 216 214 221 231 214 204 206 252 245 221 216 205 225 214 240 220 225 229 247 248 258 240 242 239 253 274 304 317 321 186 178 154 144 165 170 166 192 205 203 178 184 195 201 207 207 209 215 215 216 216 215 215 214 216 213 216 216 219 213 216 215 213 205 204 199 196 193 198 201 204 207 206 201 196 195 195 199 193 199 196
203 182 198 206 219 228 234 230 315 204 160 196 193 207 220 232 222 216 214 218 224 223 234 228 239 259 262 256 258 250 233 232 250 297 235 290 120 107 145 162 183 189 195 205 212 226 218 218 231 235 233 228 225 216 213 212 218 216 216 221 212 206 202 207 205 210 208 209 207 205 206 200 201 201 203 203 204 195 192 194 195 192 197 193 193 196
114 206 203 210 222 231 235 224 218 160 181 197 208 218 208 218 225 219 213 225 212 225 241 227 230 237 248 250 245 244 258 276 250 243 256 267 238 198 212 181 168 182 222 246 262 247 251 259 266 253 243 238 232 215 212 211 213 213 212 219 214 204 197 198 195 204 205 202 209 210 212 211 206 199 197 194 188 188 189 189 191 195 193 187 198 200
165 200 229 217 234 236 235 239 232 222 167 196 211 214 206 209 217 228 225 226 221 224 235 226 214 230 246 248 248 245 252 259 253 254 223 220 243 227 170 183 190 198 201 206 236 234 232 243 243 239 234 230 225 216 215 219 231 234 230 220 214 205 206 192 187 200 204 207 212 219 219 213 204 194 189 184 182 186 189 189 190 188 189 190 198 199
181 224 224 225 245 242 244 241 240 243 244 233 214 218 223 228 236 235 242 242 236 234 236 248 244 236 241 251 249 245 246 250 244 247 258 238 222 216 203 207 224 210 184 196 211 212 216 223 225 220 215 252 238 233 225 224 221 218 216 220 208 202 208 176 194 191 201 210 218 218 201 194 187 188 187 187 192 194 191 189 188 188 194 200 197 195
252 240 212 229 250 256 252 246 241 240 241 248 245 234 230 231 237 230 230 248 265 288 288 282 271 265 262 262 260 257 255 264 259 245 230 224 206 200 201 215 231 211 186 212 211 237 238 245 269 311 317 277 258 239 232 224 218 209 214 212 201 195 197 172 189 198 204 223 217 202 199 196 205 196 199 203 193 190 188 191 186 187 195 196 191 191
158 259 205 231 239 252 246 242 245 245 241 244 247 243 240 234 240 244 233 220 223 240 249 251 261 259 265 266 276 260 256 255 262 259 250 224 210 193 197 215 219 223 219 223 242 266 281 278 267 268 269 268 261 250 236 241 229 209 219 201 192 183 161 166 182 195 213 217 212 211 206 207 203 203 208 193 198 190 187 178 181 193 192 186 195 198
166 199 207 227 247 251 249 231 240 246 251 247 238 239 237 239 234 244 247 235 218 207 233 237 246 242 257 290 295 282 260 252 252 251 251 258 230 191 194 207 216 221 225 228 253 275 278 275 286 296 288 297 289 288 283 241 254 295 280 228 204 132 143 164 174 189 207 216 211 216 213 208 205 209 208 208 197 190 184 192 199 206 204 209 204 174
141 188 234 213 244 254 253 236 238 247 241 240 213 218 217 227 224 230 240 232 224 192 214 217 246 268 281 272 269 266 270 259 266 275 260 250 256 252 236 227 220 217 226 241 251 273 293 311 334 8 319 254 243 207 153 101 97 82 90 121 110 129 161 168 193 194 212 211 216 214 210 206 204 209 209 201 194 184 192 202 214 218 228 231 201 212
170 143 207 195 249 247 262 232 225 233 245 254 236 223 217 225 224 227 237 233 226 207 212 234 240 254 255 259 259 265 270 283 263 253 288 313 277 234 219 220 217 215 225 239 273 279 293 317 345 9 5 350 9 35 59 52 106 113 93 103 99 113 144 184 211 245 245 240 238 227 229 225 220 213 203 199 197 197 205 209 211 207 207 201 210 216
214 189 202 211 241 298 297 236 244 226 242 258 243 216 203 202 212 212 244 239 216 205 199 219 231 243 251 253 250 246 256 258 289 312 286 257 300 318 251 212 206 189 195 221 238 32 41 29 30 58 89 65 77 95 120 151 147 105 125 121 124 134 142 163 194 241 251 258 331 8 343 226 235 224 211 202 199 206 221 220 209 207 198 201 220 232
215 209 149 253 186 246 258 255 257 319 315 287 299 216 142 174 176 189 225 236 217 213 202 215 231 238 241 242 243 248 244 257 279 274 281 340 342 0 357 11 51 57 55 47 62 74 59 52 52 18 56 61 45 32 13 21 76 94 100 103 124 121 115 118 222 247 260 355 49 206 201 193 207 213 208 201 201 217 222 219 219 212 183 195 209 218
196 204 186 212 226 186 248 265 267 259 253 257 238 191 186 196 196 197 207 255 207 197 198 207 223 228 232 236 239 239 235 251 259 260 247 262 354 9 8 16 39 50 47 39 36 44 35 29 38 34 48 52 40 20 6 7 46 90 86 95 127 106 100 53 304 330 1 332 250 219 202 199 201 216 216 206 217 232 244 247 250 233 202 206 211 221
206 203 208 196 242 227 236 249 246 250 248 252 244 196 198 204 207 173 197 250 213 184 196 203 218 226 222 225 227 217 197 232 244 246 98 45 16 14 58 25 33 47 44 35 32 36 29 28 41 39 37 36 31 359 355 360 35 66 55 43 42 84 55 358 334 340 334 317 309 343 272 212 203 210 212 218 243 251 261 247 235 230 183 220 230 244
198 197 197 216 225 229 238 246 252 202 254 250 230 211 198 208 189 99 222 246 230 182 200 196 216 221 222 226 216 204 199 227 241 215 136 105 75 44 60 48 27 30 37 32 31 35 50 42 47 39 34 30 9 343 356 20 61 62 53 37 49 45 31 16 7 357 4 1 0 2 1 345 226 220 205 224 235 232 233 229 220 224 205 220 214 238
190 198 187 210 215 231 227 246 258 266 253 253 200 255 293 159 130 190 222 233 229 192 191 187 200 26 261 226 200 215 220 260 72 105 96 90 76 55 64 69 63 50 49 38 28 20 56 52 61 59 49 26 1 359 9 52 71 61 52 53 51 38 9 349 355 359 354 350 359 7 5 2 16 8 292 221 224 217 214 207 214 210 196 222 229 230
192 186 202 206 227 231 231 231 243 260 243 217 218 177 153 86 221 219 225 339 119 142 77 115 118 109 106 85 89 100 133 130 96 66 78 82 86 76 64 60 52 45 40 44 38 44 55 60 58 54 44 25 20 17 24 64 77 69 63 59 43 359 339 350 353 348 351 356 359 359 357 358 352 5 351 335 32 338 289 262 209 203 207 209 213 228
177 178 188 200 216 233 237 241 247 258 228 207 148 23 189 194 220 207 129 292 168 163 129 91 116 143 126 94 107 120 117 101 99 90 83 82 80 82 78 72 64 57 47 39 42 26 52 65 57 51 42 15 24 26 30 70 78 76 70 63 20 323 338 341 344 351 8 19 18 4 351 343 346 332 336 326 320 279 264 257 235 223 193 208 222 234
159 182 193 210 180 202 201 206 223 231 293 156 164 202 189 212 172 169 161 186 217 201 150 123 86 105 112 120 122 111 112 113 104 114 94 79 74 63 63 63 61 60 50 43 52 33 45 68 61 57 36 21 21 23 23 61 80 69 66 43 311 310 320 332 334 3 41 41 31 15 5 342 325 315 311 295 293 299 281 297 290 273 228 219 219 231
171 201 189 212 180 196 215 221 219 246 232 318 20 287 307 342 52 180 179 139 159 220 267 132 130 121 119 120 110 116 106 105 109 107 102 101 89 78 72 62 58 52 46 42 27 15 37 53 45 45 42 24 18 10 18 19 74 82 71 345 325 326 353 115 129 116 89 79 63 40 4 340 325 313 298 274 239 255 260 269 262 266 267 230 243 240
319 228 81 160 242 228 290 187 133 298 309 295 350 356 192 87 44 41 115 112 66 99 60 147 129 117 119 123 120 108 114 126 111 103 97 89 80 66 55 48 35 35 32 31 24 15 23 30 36 37 37 23 19 12 7 10 18 39 15 336 329 317 306 302 78 71 75 73 84 79 117 98 119 166 241 279 215 212 224 227 232 222 241 216 223 223
225 153 187 201 278 148 255 173 165 200 91 322 277 4 24 84 114 115 100 98 121 115 100 73 94 104 110 112 112 120 115 117 107 103 104 98 85 77 71 65 44 45 39 32 22 25 20 36 36 31 23 25 10 13 3 5 10 11 349 349 339 335 322 302 115 104 91 70 56 26 26 47 34 30 76 140 173 192 206 207 212 217 240 229 239 242
274 169 201 218 176 191 244 160 179 101 104 114 143 201 119 84 83 75 92 103 105 94 91 98 90 89 90 91 105 109 111 103 104 102 96 98 96 87 72 67 54 39 18 39 27 30 19 27 34 31 26 16 2 10 2 1 356 352 353 350 351 344 340 337 352 29 59 110 138 86 60 60 11 9 0 339 344 341 300 208 195 207 226 228 229 232
176 130 215 177 201 274 331 211 140 113 133 223 199 189 156 141 120 111 111 116 119 111 99 75 70 97 92 109 98 100 96 91 94 101 90 80 68 56 45 47 42 39 38 26 20 30 19 11 10 10 29 358 10 24 8 353 345 343 353 347 353 358 355 346 340 346 351 355 43 68 238 226 207 217 221 260 278 266 247 251 287 260 263 253 218 215
103 208 169 103 203 231 226 206 145 164 246 193 207 181 150 154 136 130 122 112 114 111 104 98 71 57 79 88 105 107 110 111 104 99 95 95 82 53 42 21 18 14 14 16 36 35 22 17 10 3 2 356 9 42 12 355 336 334 324 344 348 8 3 351 344 343 344 344 345 341 344 335 297 232 225 210 203 220 265 259 227 211 214 261 241 229
211 202 157 195 205 233 231 171 184 200 229 174 163 155 140 141 139 130 136 131 121 113 117 109 102 85 80 63 77 105 106 107 112 98 85 80 60 61 43 37 23 10 7 8 19 13 14 4 6 5 8 355 0 358 11 351 343 334 324 322 344 353 348 351 350 342 336 339 336 333 331 330 328 328 329 321 310 297 274 254 251 243 229 224 239 227